• In India
  • List of Countries
  • For 7 days
  • Water Temperature
  • Satellite Maps
  • Weather Map
  • Weather Widgets
  • user-avatar
    Login

    Hourly Weather Bubanza

    Today, 23 June, Saturday

    Time Temperature Precipitation Wind Pressure Humidity
    00:00 +20°C° 0.1 mm 1 mps 674 mmHg 91%
    01:00 +20°C° 0.1 mm 1 mps 674 mmHg 92%
    02:00 +20°C° 0 mm 1 mps 674 mmHg 91%
    03:00 +19°C° 0 mm 1 mps 674 mmHg 91%
    04:00 +19°C° 0 mm 1 mps 674 mmHg 91%
    05:00 +19°C° 0 mm 1 mps 674 mmHg 91%
    06:00 +21°C° 0 mm 1 mps 674 mmHg 85%
    07:00 +20°C° 0 mm 0 mps 675 mmHg 80%
    08:00 +22°C° 0 mm 0 mps 676 mmHg 72%
    09:00 +25°C° 0.1 mm 1 mps 675 mmHg 67%
    10:00 +26°C° 0.1 mm 1 mps 675 mmHg 63%
    11:00 +27°C° 0.1 mm 2 mps 675 mmHg 58%
    12:00 +28°C° 0.2 mm 2 mps 675 mmHg 59%
    13:00 +28°C° 0.2 mm 2 mps 674 mmHg 59%
    14:00 +28°C° 0.2 mm 2 mps 673 mmHg 59%
    15:00 +28°C° 0.4 mm 1 mps 673 mmHg 62%
    16:00 +27°C° 0.4 mm 1 mps 673 mmHg 66%
    17:00 +26°C° 0.4 mm 1 mps 672 mmHg 69%
    18:00 +25°C° 0.2 mm 1 mps 673 mmHg 74%
    19:00 +23°C° 0.2 mm 1 mps 673 mmHg 79%
    20:00 +19°C° 0.2 mm 0 mps 673 mmHg 85%
    21:00 +19°C° 0 mm 0 mps 673 mmHg 85%
    22:00 +19°C° 0 mm 0 mps 673 mmHg 86%
    23:00 +20°C° 0 mm 1 mps 674 mmHg 87%

    Tomorrow, 24 June, Sunday

    Time Temperature Precipitation Wind Pressure Humidity
    00:00 +20°C° 0 mm 1 mps 673 mmHg 87%
    01:00 +20°C° 0 mm 1 mps 673 mmHg 88%
    02:00 +19°C° 0 mm 1 mps 673 mmHg 88%
    03:00 +19°C° 0 mm 1 mps 673 mmHg 88%
    04:00 +19°C° 0 mm 1 mps 673 mmHg 88%
    05:00 +19°C° 0 mm 1 mps 673 mmHg 88%
    06:00 +21°C° 0 mm 1 mps 673 mmHg 81%
    07:00 +20°C° 0 mm 0 mps 674 mmHg 75%
    08:00 +22°C° 0 mm 0 mps 674 mmHg 69%
    09:00 +26°C° 0 mm 1 mps 675 mmHg 62%
    10:00 +27°C° 0 mm 1 mps 675 mmHg 55%
    11:00 +29°C° 0 mm 2 mps 675 mmHg 48%
    12:00 +29°C° 0 mm 2 mps 674 mmHg 49%
    13:00 +29°C° 0 mm 2 mps 673 mmHg 51%
    14:00 +29°C° 0 mm 2 mps 673 mmHg 52%
    15:00 +28°C° 0.2 mm 1 mps 672 mmHg 56%
    16:00 +27°C° 0.2 mm 1 mps 672 mmHg 59%
    17:00 +27°C° 0.2 mm 1 mps 672 mmHg 63%
    18:00 +25°C° 0.2 mm 1 mps 672 mmHg 68%
    19:00 +22°C° 0.2 mm 0 mps 673 mmHg 73%
    20:00 +20°C° 0.2 mm 0 mps 673 mmHg 78%
    21:00 +20°C° 0.1 mm 0 mps 673 mmHg 80%
    22:00 +19°C° 0.1 mm 0 mps 673 mmHg 81%
    23:00 +19°C° 0.1 mm 0 mps 674 mmHg 82%

    Day after tomorrow, 25 June, Monday

    Time Temperature Precipitation Wind Pressure Humidity
    00:00 +19°C° 0 mm 0 mps 673 mmHg 83%
    01:00 +18°C° 0 mm 0 mps 673 mmHg 84%
    02:00 +18°C° 0 mm 0 mps 672 mmHg 85%
    03:00 +20°C° 0 mm 1 mps 672 mmHg 86%
    04:00 +19°C° 0 mm 1 mps 672 mmHg 86%
    05:00 +19°C° 0 mm 1 mps 672 mmHg 86%
    06:00 +21°C° 0 mm 1 mps 673 mmHg 79%
    07:00 +21°C° 0 mm 0 mps 673 mmHg 71%
    08:00 +22°C° 0 mm 0 mps 674 mmHg 64%
    09:00 +26°C° 0 mm 1 mps 674 mmHg 59%
    10:00 +27°C° 0 mm 2 mps 674 mmHg 54%
    11:00 +28°C° 0 mm 2 mps 674 mmHg 49%
    12:00 +29°C° 0 mm 2 mps 674 mmHg 50%
    13:00 +29°C° 0 mm 2 mps 673 mmHg 50%
    14:00 +29°C° 0 mm 2 mps 672 mmHg 50%
    15:00 +28°C° 0 mm 1 mps 672 mmHg 53%
    16:00 +28°C° 0 mm 1 mps 672 mmHg 55%
    17:00 +27°C° 0 mm 1 mps 672 mmHg 58%
    18:00 +25°C° 0 mm 1 mps 672 mmHg 63%
    19:00 +22°C° 0 mm 0 mps 672 mmHg 69%
    20:00 +20°C° 0 mm 0 mps 673 mmHg 75%
    21:00 +20°C° 0 mm 0 mps 673 mmHg 76%
    22:00 +19°C° 0 mm 0 mps 673 mmHg 76%
    23:00 +21°C° 0 mm 1 mps 673 mmHg 77%

    26 June, Tuesday

    Time Temperature Precipitation Wind Pressure Humidity
    00:00 +21°C° 0 mm 1 mps 673 mmHg 78%
    01:00 +20°C° 0 mm 1 mps 673 mmHg 80%
    02:00 +20°C° 0 mm 1 mps 672 mmHg 81%
    03:00 +20°C° 0 mm 1 mps 672 mmHg 81%
    04:00 +19°C° 0 mm 1 mps 672 mmHg 81%
    05:00 +19°C° 0 mm 1 mps 672 mmHg 81%
    06:00 +21°C° 0 mm 1 mps 673 mmHg 74%
    07:00 +22°C° 0 mm 1 mps 673 mmHg 67%
    08:00 +24°C° 0 mm 1 mps 674 mmHg 61%
    09:00 +26°C° 0 mm 1 mps 674 mmHg 56%
    10:00 +27°C° 0 mm 2 mps 674 mmHg 51%
    11:00 +29°C° 0 mm 2 mps 674 mmHg 46%
    12:00 +29°C° 0 mm 2 mps 674 mmHg 46%
    13:00 +29°C° 0 mm 2 mps 673 mmHg 46%
    14:00 +29°C° 0 mm 2 mps 672 mmHg 46%
    15:00 +29°C° 0 mm 2 mps 672 mmHg 49%
    16:00 +28°C° 0 mm 1 mps 672 mmHg 52%
    17:00 +27°C° 0 mm 1 mps 671 mmHg 54%
    18:00 +25°C° 0 mm 1 mps 672 mmHg 60%
    19:00 +23°C° 0 mm 1 mps 672 mmHg 66%
    20:00 +20°C° 0 mm 0 mps 672 mmHg 72%
    21:00 +19°C° 0 mm 0 mps 673 mmHg 73%
    22:00 +21°C° 0 mm 1 mps 673 mmHg 74%
    23:00 +21°C° 0 mm 1 mps 673 mmHg 75%

    27 June, Wednesday

    Time Temperature Precipitation Wind Pressure Humidity
    00:00 +20°C° 0 mm 1 mps 673 mmHg 76%
    01:00 +20°C° 0 mm 1 mps 672 mmHg 77%
    02:00 +20°C° 0 mm 1 mps 672 mmHg 78%
    03:00 +20°C° 0 mm 1 mps 672 mmHg 77%
    04:00 +19°C° 0 mm 1 mps 672 mmHg 77%
    05:00 +19°C° 0 mm 1 mps 672 mmHg 77%
    06:00 +21°C° 0 mm 1 mps 673 mmHg 71%
    07:00 +22°C° 0 mm 1 mps 674 mmHg 65%
    08:00 +24°C° 0 mm 1 mps 675 mmHg 59%
    09:00 +26°C° 0 mm 1 mps 675 mmHg 55%
    10:00 +27°C° 0 mm 2 mps 675 mmHg 50%
    11:00 +29°C° 0 mm 2 mps 675 mmHg 46%
    12:00 +29°C° 0 mm 2 mps 674 mmHg 46%
    13:00 +29°C° 0 mm 2 mps 673 mmHg 45%
    14:00 +30°C° 0 mm 2 mps 672 mmHg 45%
    15:00 +29°C° 0 mm 2 mps 672 mmHg 49%
    16:00 +28°C° 0 mm 1 mps 672 mmHg 52%
    17:00 +27°C° 0 mm 1 mps 671 mmHg 55%
    18:00 +26°C° 0 mm 1 mps 672 mmHg 61%
    19:00 +24°C° 0 mm 1 mps 672 mmHg 66%
    20:00 +20°C° 0 mm 0 mps 672 mmHg 72%
    21:00 +20°C° 0 mm 0 mps 673 mmHg 73%
    22:00 +20°C° 0 mm 0 mps 673 mmHg 75%
    23:00 +21°C° 0 mm 1 mps 673 mmHg 76%

    28 June, Thursday

    Time Temperature Precipitation Wind Pressure Humidity
    00:00 +21°C° 0 mm 1 mps 672 mmHg 77%
    01:00 +21°C° 0 mm 1 mps 672 mmHg 78%
    02:00 +20°C° 0 mm 1 mps 672 mmHg 79%
    03:00 +20°C° 0 mm 1 mps 672 mmHg 79%
    04:00 +20°C° 0 mm 1 mps 672 mmHg 79%
    05:00 +20°C° 0 mm 1 mps 672 mmHg 79%
    06:00 +21°C° 0 mm 1 mps 673 mmHg 74%
    07:00 +21°C° 0 mm 0 mps 674 mmHg 68%
    08:00 +22°C° 0 mm 0 mps 675 mmHg 62%
    09:00 +25°C° 0 mm 1 mps 674 mmHg 58%
    10:00 +27°C° 0 mm 2 mps 674 mmHg 54%
    11:00 +28°C° 0 mm 2 mps 674 mmHg 50%
    12:00 +28°C° 0 mm 2 mps 673 mmHg 50%
    13:00 +28°C° 0 mm 2 mps 673 mmHg 50%
    14:00 +28°C° 0 mm 2 mps 672 mmHg 49%
    15:00 +28°C° 0 mm 2 mps 672 mmHg 52%
    16:00 +27°C° 0 mm 1 mps 672 mmHg 54%
    17:00 +27°C° 0 mm 1 mps 671 mmHg 57%
    18:00 +25°C° 0 mm 1 mps 672 mmHg 63%
    19:00 +23°C° 0 mm 1 mps 672 mmHg 68%
    20:00 +20°C° 0 mm 0 mps 672 mmHg 74%
    21:00 +19°C° 0 mm 0 mps 673 mmHg 76%
    22:00 +19°C° 0 mm 0 mps 673 mmHg 77%
    23:00 +21°C° 0 mm 1 mps 673 mmHg 78%
    Show more